Location: Unspecified
(38.9820°N, 94.4650°W)
Time: 21:22:19
(UTC-05:00)

Cosmos 2058 - Visible Passes

Search period start: 22 October 2019 00:00
Search period end: 01 November 2019 00:00
Orbit: 563 x 583 km, 82.5° (Epoch: 22 October)

Date Brightness Start Highest point End Pass type
(mag) Time Alt. Az. Time Alt. Az. Time Alt. Az.
22 Oct 4.8 19:01:56 10° NE 19:03:40 12° ENE 19:05:24 10° E visible
22 Oct 3.8 20:36:49 10° NNW 20:40:53 49° W 20:42:50 27° SSW visible
23 Oct 4.5 19:04:07 10° NNE 19:06:45 16° ENE 19:09:22 10° ESE visible
23 Oct 4.4 20:39:57 10° NNW 20:43:48 36° W 20:47:38 10° SSW visible
24 Oct 4.2 19:06:37 10° NNE 19:09:50 21° ENE 19:13:01 10° SE visible
24 Oct 5.0 20:43:09 10° NNW 20:46:43 27° W 20:50:15 10° SSW visible
25 Oct 3.8 19:09:16 10° NNE 19:12:53 27° ENE 19:16:27 10° SE visible
25 Oct 5.5 20:46:28 10° NW 20:49:36 21° W 20:52:44 10° SW visible
26 Oct 3.5 19:12:02 10° N 19:15:55 36° ENE 19:19:46 10° SE visible
26 Oct 5.9 20:49:57 10° NW 20:52:28 16° W 20:55:00 10° WSW visible
27 Oct 3.1 19:14:51 10° N 19:18:56 48° E 19:22:57 10° SSE visible
27 Oct 6.3 20:53:49 10° WNW 20:55:20 12° W 20:56:51 10° WSW visible
28 Oct 2.8 19:17:44 10° N 19:21:56 65° E 19:26:04 10° SSE visible
29 Oct 2.9 19:20:41 10° N 19:24:55 89° E 19:29:04 10° S visible
30 Oct 3.3 19:23:41 10° NNW 19:27:52 68° W 19:31:59 10° S visible
31 Oct 3.9 19:26:45 10° NNW 19:30:48 49° W 19:34:49 10° SSW visible
